When you browse on this site, cookies collect data to enhance your experience and personalize the content and advertising you see.
Visit our Privacy Policy to learn more. By continuing to use the site, you agree to this use of cookies and data.
  • In Austria
  • List of Countries
  • For 7 days
  • Water Temperature
  • Weather Map
  • News
  • Weather Widgets
  • user-avatar
    Login

    Hourly Weather Kalat

    Today, 22 February, Saturday

    Time Temperature Precipitation Wind Pressure Humidity
    00:00 -15°C° 0 mm 3 mps 468 mmHg 59%
    01:00 -14°C° 0 mm 2 mps 468 mmHg 61%
    02:00 -15°C° 0 mm 2 mps 468 mmHg 63%
    03:00 -15°C° 0 mm 2 mps 468 mmHg 64%
    04:00 -15°C° 0 mm 2 mps 467 mmHg 64%
    05:00 -14°C° 0 mm 1 mps 467 mmHg 65%
    06:00 -13°C° 0 mm 1 mps 468 mmHg 66%
    07:00 -13°C° 0 mm 1 mps 468 mmHg 67%
    08:00 -12°C° 0 mm 1 mps 469 mmHg 68%
    09:00 -10°C° 0 mm 1 mps 471 mmHg 66%
    10:00 -8°C° 0 mm 1 mps 472 mmHg 64%
    11:00 -6°C° 0 mm 1 mps 474 mmHg 63%
    12:00 -6°C° 0.1 mm 1 mps 474 mmHg 66%
    13:00 -4°C° 0.1 mm 1 mps 474 mmHg 70%
    14:00 -3°C° 0.1 mm 1 mps 474 mmHg 74%
    15:00 -4°C° 0.1 mm 1 mps 473 mmHg 78%
    16:00 -6°C° 0.1 mm 1 mps 473 mmHg 82%
    17:00 -7°C° 0.1 mm 1 mps 472 mmHg 87%
    18:00 -9°C° 0 mm 1 mps 471 mmHg 88%
    19:00 -11°C° 0 mm 1 mps 469 mmHg 89%
    20:00 -13°C° 0 mm 1 mps 468 mmHg 90%
    21:00 -14°C° 0 mm 1 mps 467 mmHg 89%
    22:00 -14°C° 0 mm 1 mps 467 mmHg 88%
    23:00 -15°C° 0 mm 1 mps 467 mmHg 86%

    Tomorrow, 23 February, Sunday

    Time Temperature Precipitation Wind Pressure Humidity
    00:00 -15°C° 0 mm 1 mps 466 mmHg 82%
    01:00 -15°C° 0 mm 1 mps 466 mmHg 77%
    02:00 -16°C° 0 mm 1 mps 465 mmHg 73%
    03:00 -16°C° 0 mm 1 mps 465 mmHg 66%
    04:00 -16°C° 0 mm 1 mps 465 mmHg 59%
    05:00 -16°C° 0 mm 1 mps 464 mmHg 52%
    06:00 -15°C° 0 mm 1 mps 465 mmHg 47%
    07:00 -15°C° 0 mm 1 mps 466 mmHg 42%
    08:00 -14°C° 0 mm 1 mps 467 mmHg 37%
    09:00 -11°C° 0 mm 1 mps 468 mmHg 39%
    10:00 -9°C° 0 mm 1 mps 470 mmHg 41%
    11:00 -6°C° 0 mm 1 mps 472 mmHg 42%
    12:00 -4°C° 0 mm 1 mps 473 mmHg 46%
    13:00 -5°C° 0 mm 2 mps 473 mmHg 49%
    14:00 -4°C° 0 mm 2 mps 473 mmHg 52%
    15:00 -5°C° 0 mm 2 mps 472 mmHg 60%
    16:00 -6°C° 0 mm 2 mps 471 mmHg 68%
    17:00 -8°C° 0 mm 2 mps 470 mmHg 76%
    18:00 -12°C° 0 mm 3 mps 469 mmHg 78%
    19:00 -14°C° 0 mm 3 mps 467 mmHg 80%
    20:00 -16°C° 0 mm 3 mps 466 mmHg 82%
    21:00 -17°C° 0 mm 3 mps 466 mmHg 83%
    22:00 -16°C° 0 mm 2 mps 465 mmHg 83%
    23:00 -17°C° 0 mm 2 mps 465 mmHg 84%

    Day after tomorrow, 24 February, Monday

    Time Temperature Precipitation Wind Pressure Humidity
    00:00 -17°C° 0 mm 2 mps 465 mmHg 82%
    01:00 -17°C° 0 mm 2 mps 464 mmHg 79%
    02:00 -16°C° 0 mm 1 mps 464 mmHg 77%
    03:00 -16°C° 0 mm 1 mps 464 mmHg 74%
    04:00 -16°C° 0 mm 1 mps 463 mmHg 71%
    05:00 -16°C° 0 mm 1 mps 463 mmHg 68%
    06:00 -16°C° 0 mm 1 mps 464 mmHg 67%
    07:00 -15°C° 0 mm 1 mps 464 mmHg 66%
    08:00 -14°C° 0 mm 1 mps 465 mmHg 65%
    09:00 -12°C° 0 mm 1 mps 467 mmHg 60%
    10:00 -10°C° 0 mm 1 mps 468 mmHg 56%
    11:00 -8°C° 0 mm 1 mps 469 mmHg 51%
    12:00 -7°C° 0 mm 1 mps 470 mmHg 54%
    13:00 -7°C° 0 mm 1 mps 470 mmHg 56%
    14:00 -6°C° 0 mm 1 mps 470 mmHg 59%
    15:00 -6°C° 0 mm 1 mps 469 mmHg 67%
    16:00 -7°C° 0 mm 1 mps 469 mmHg 75%
    17:00 -8°C° 0 mm 1 mps 468 mmHg 83%
    18:00 -10°C° 0 mm 1 mps 467 mmHg 85%
    19:00 -12°C° 0 mm 1 mps 466 mmHg 88%
    20:00 -14°C° 0 mm 1 mps 465 mmHg 90%
    21:00 -14°C° 0 mm 1 mps 464 mmHg 89%
    22:00 -15°C° 0 mm 1 mps 464 mmHg 88%
    23:00 -15°C° 0 mm 1 mps 464 mmHg 87%

    25 February, Tuesday

    Time Temperature Precipitation Wind Pressure Humidity
    00:00 -16°C° 0 mm 1 mps 463 mmHg 84%
    01:00 -16°C° 0 mm 1 mps 463 mmHg 81%
    02:00 -16°C° 0 mm 1 mps 462 mmHg 78%
    03:00 -16°C° 0 mm 1 mps 462 mmHg 73%
    04:00 -17°C° 0 mm 1 mps 462 mmHg 68%
    05:00 -17°C° 0 mm 1 mps 462 mmHg 63%
    06:00 -16°C° 0 mm 1 mps 462 mmHg 61%
    07:00 -16°C° 0 mm 1 mps 463 mmHg 60%
    08:00 -15°C° 0 mm 0 mps 464 mmHg 58%
    09:00 -13°C° 0 mm 1 mps 465 mmHg 55%
    10:00 -11°C° 0 mm 1 mps 466 mmHg 52%
    11:00 -9°C° 0 mm 1 mps 468 mmHg 49%
    12:00 -8°C° 0 mm 1 mps 468 mmHg 52%
    13:00 -7°C° 0 mm 1 mps 469 mmHg 55%
    14:00 -6°C° 0 mm 1 mps 469 mmHg 57%
    15:00 -7°C° 0 mm 1 mps 469 mmHg 64%
    16:00 -8°C° 0 mm 1 mps 468 mmHg 71%
    17:00 -9°C° 0 mm 1 mps 467 mmHg 78%
    18:00 -11°C° 0 mm 1 mps 466 mmHg 79%
    19:00 -13°C° 0 mm 1 mps 465 mmHg 80%
    20:00 -15°C° 0 mm 1 mps 463 mmHg 81%
    21:00 -15°C° 0 mm 1 mps 464 mmHg 76%
    22:00 -15°C° 0 mm 1 mps 464 mmHg 70%
    23:00 -15°C° 0 mm 1 mps 464 mmHg 64%

    26 February, Wednesday

    Time Temperature Precipitation Wind Pressure Humidity
    00:00 -16°C° 0 mm 1 mps 464 mmHg 60%
    01:00 -16°C° 0 mm 1 mps 463 mmHg 56%
    02:00 -16°C° 0 mm 1 mps 463 mmHg 51%
    03:00 -16°C° 0 mm 1 mps 464 mmHg 50%
    04:00 -15°C° 0 mm 1 mps 464 mmHg 48%
    05:00 -15°C° 0 mm 1 mps 464 mmHg 46%
    06:00 -14°C° 0 mm 1 mps 465 mmHg 48%
    07:00 -13°C° 0 mm 1 mps 466 mmHg 49%
    08:00 -12°C° 0 mm 1 mps 466 mmHg 51%
    09:00 -10°C° 0 mm 1 mps 468 mmHg 48%
    10:00 -8°C° 0 mm 1 mps 469 mmHg 45%
    11:00 -4°C° 0 mm 1 mps 470 mmHg 43%
    12:00 -3°C° 0 mm 1 mps 471 mmHg 47%
    13:00 -2°C° 0 mm 1 mps 471 mmHg 51%
    14:00 -1°C° 0 mm 1 mps 472 mmHg 56%
    15:00 -1°C° 0 mm 1 mps 472 mmHg 64%
    16:00 -1°C° 0 mm 1 mps 472 mmHg 72%
    17:00 -1°C° 0 mm 1 mps 472 mmHg 80%
    18:00 -2°C° 0.2 mm 1 mps 471 mmHg 82%
    19:00 -5°C° 0.2 mm 2 mps 471 mmHg 85%
    20:00 -6°C° 0.2 mm 2 mps 471 mmHg 88%
    21:00 -6°C° 0.2 mm 2 mps 470 mmHg 89%
    22:00 -7°C° 0.2 mm 2 mps 470 mmHg 90%
    23:00 -7°C° 0.2 mm 2 mps 470 mmHg 91%

    27 February, Thursday

    Time Temperature Precipitation Wind Pressure Humidity
    00:00 -7°C° 0.2 mm 2 mps 470 mmHg 91%
    01:00 -7°C° 0.2 mm 2 mps 469 mmHg 91%
    02:00 -7°C° 0.2 mm 2 mps 469 mmHg 91%
    03:00 -8°C° 0 mm 2 mps 468 mmHg 90%
    04:00 -9°C° 0 mm 2 mps 467 mmHg 88%
    05:00 -10°C° 0 mm 2 mps 467 mmHg 86%
    06:00 -9°C° 0 mm 2 mps 467 mmHg 85%
    07:00 -9°C° 0 mm 2 mps 468 mmHg 84%
    08:00 -8°C° 0 mm 2 mps 469 mmHg 83%
    09:00 -6°C° 0 mm 2 mps 470 mmHg 82%
    10:00 -6°C° 0 mm 3 mps 472 mmHg 80%
    11:00 -4°C° 0 mm 3 mps 473 mmHg 79%
    12:00 -2°C° 0.2 mm 3 mps 473 mmHg 82%
    13:00 -2°C° 0.2 mm 3 mps 473 mmHg 85%
    14:00 -2°C° 0.2 mm 4 mps 473 mmHg 87%
    15:00 -3°C° 0.3 mm 4 mps 473 mmHg 86%
    16:00 -4°C° 0.3 mm 3 mps 472 mmHg 85%
    17:00 -5°C° 0.3 mm 3 mps 472 mmHg 84%
    18:00 -6°C° 0.4 mm 3 mps 471 mmHg 85%
    19:00 -7°C° 0.4 mm 3 mps 470 mmHg 87%
    20:00 -8°C° 0.4 mm 3 mps 470 mmHg 88%
    21:00 -9°C° 0.1 mm 3 mps 469 mmHg 87%
    22:00 -10°C° 0.1 mm 3 mps 469 mmHg 86%
    23:00 -10°C° 0.1 mm 3 mps 468 mmHg 85%
    Show more